Location: Eferding
(48.3167°N, 14.0167°E)
Time: 09:57:25
(UTC+00:00)

Cosmos 773 Rocket - Pass Details

Date: 12 November 2019
Orbit: 745 x 778 km, 74.1° (Epoch: 08 December)

Event Time Altitude Azimuth Distance (km) Brightness Sun altitude
Rises 17:33:14 0° 211° (SSW) 3,183 7.7 -20.6°
Reaches altitude 10° 17:35:36 10° 215° (SW) 2,267 6.9 -21.0°
Maximum altitude 17:40:41 61° 296° (WNW) 855 4.4 -21.8°
Enters shadow 17:45:15 13° 16° (NNE) 2,076 6.1 -22.6°
